Regional Weather Roundup
Issued by NWS

Home | Current Version | Previous Version | Text Only | Print | Product List | Glossary Off
Versions: 1 2 3 4 5 6 7 8 9 10 11 12 13 14 15 16 17 18 19 20 21 22 23 24 25 26 27 28 29 30 31 32 33 34 35 36 37 38 39 40 41 42 43 44 45 46 47 48 49 50

000
ASUS43 KLMK 041710
RWRKY
KENTUCKY REGIONAL WEATHER ROUNDUP
NATIONAL WEATHER SERVICE LOUISVILLE KY
100 PM EDT MON MAY 04 2015

NOTE "FAIR" INDICATES FEW OR NO CLOUDS BELOW 12,000 FEET
WITH NO SIGNIFICANT WEATHER AND/OR OBSTRUCTIONS TO VISIBILITY.

KYZ001>023-026-027-061>063-070>075-041800-
WESTERN AND SOUTH CENTRAL KENTUCKY

CITY           SKY/WX    TMP DP  RH WIND       PRES   REMARKS
PADUCAH        MOSUNNY   82  57  42 SW13G23   30.19S
HENDERSON      MOSUNNY   82  55  39 SW14      30.18S
OWENSBORO      MOSUNNY   80  62  54 SW7       30.21S
HOPKINSVILLE   MOSUNNY   78  60  53 SW8       30.23S
BOWLING GREEN  MOSUNNY   80  57  45 VRB7      30.24F
GLASGOW        MOSUNNY   79  55  44 SW12      30.25F
$$

KYZ024-025-028>034-038-045-046-053-041800-
NORTH CENTRAL KENTUCKY

CITY           SKY/WX    TMP DP  RH WIND       PRES   REMARKS
LOUISVILLE/SDF PTSUNNY   80  55  42 W12       30.21S
LOUISVILLE/LOU MOSUNNY   79  56  45 W8        30.21S
FORT KNOX      PTSUNNY   80  58  46 S13       30.21S
$$

KYZ035>037-039>044-047>052-055>060-089>105-041800-
NORTHEAST KENTUCKY

CITY           SKY/WX    TMP DP  RH WIND       PRES   REMARKS
LEXINGTON      MOSUNNY   76  53  44 SW12      30.25S
COVINGTON      PTSUNNY   78  54  43 SW10G23   30.21R
FRANKFORT      MOSUNNY   78  55  44 SW8       30.22F
$$

KYZ054-064>069-076>088-106>120-041800-
SOUTHEAST KENTUCKY

CITY           SKY/WX    TMP DP  RH WIND       PRES   REMARKS
JACKSON        MOSUNNY   78  50  37 MISG      30.29S
LONDON         PTSUNNY   79  45  29 W13G22    30.28F
SOMERSET       SUNNY     75  50  41 SW10      30.29F
MIDDLESBORO    PTSUNNY   78  51  39 S8        30.30F
MONTICELLO     MOSUNNY   78  53  41 SW10      30.31F
$$



USA.gov is the U.S. government's official web portal to all federal, state and local government web resources and services.